Location: College Park
(38.9810°N, 76.9370°W)
Time: 20:35:48
(UTC-05:00)

OTV 5 (USA 277) - Pass Details

Date: 12 January 2018
Orbit: 404 x 417 km, 43.0° (Epoch: 07 September)

Event Time Altitude Azimuth Distance (km) Brightness Sun altitude
Exits shadow 05:44:16 28° 198° (SSW) 787 ? -19.4°
Drops below altitude 10° 05:46:46 10° 150° (SSE) 1,447 ? -18.9°
Sets 05:49:00 0° 139° (SE) 2,303 ? -18.5°
